Orbital Elements at Epoch 2459200.5 (2020-Dec-17.0) TDB
Reference: JPL 28 (heliocentric ecliptic J2000)
Element | Value | Uncertainty (1-sigma) | Units |
e | .2953808696223781 | 2.5868e-08 | |
a | 2.286492785754188 | 7.0231e-09 | au |
q | 1.611106558312822 | 6.0163e-08 | au |
i | 3.885607240049826 | 4.07e-06 | deg |
node | 202.6820898115471 | 4.6725e-05 | deg |
peri | 121.5534470891099 | 4.7367e-05 | deg |
M | 335.4207097580492 | 1.0209e-05 | deg |
tp | 2459286.722382119743 (2021-Mar-13.22238212) | 3.6062e-05 | TDB |
period | 1262.854104311344 3.46 | 5.8184e-06 1.593e-08 | d yr |
n | .285068559203293 | 1.3134e-09 | deg/d |
Q | 2.961879013195554 | 9.0976e-09 | au |
|
| | Orbit Determination Parameters
Additional Information
|